Time,TemperatureF,DewpointF,PressureIn,WindDirection,WindDirectionDegrees,WindSpeedMPH,WindSpeedGustMPH,Humidity,HourlyPrecipIn,Conditions,Clouds,dailyrainin,SoftwareType,DateUTC
2013-12-13 00:00:00,18.5,14.0,28.70,SW,225,9.0,19.0,73,0.00,,,0.00,Rainwise IP-100,2013-12-13 05:00:00,
2013-12-13 00:01:00,18.5,14.0,28.70,WSW,247,8.0,19.0,73,0.00,,,0.00,Rainwise IP-100,2013-12-13 05:01:00,
2013-12-13 00:02:00,18.5,14.0,28.70,WSW,247,9.0,19.0,74,0.00,,,0.00,Rainwise IP-100,2013-12-13 05:02:00,
2013-12-13 00:04:00,18.5,14.0,28.70,WSW,247,21.0,21.0,73,0.00,,,0.00,Rainwise IP-100,2013-12-13 05:04:00,
2013-12-13 00:06:00,18.6,14.0,28.70,SSW,202,11.0,21.0,72,0.00,,,0.00,Rainwise IP-100,2013-12-13 05:06:00,
2013-12-13 00:11:00,18.5,14.0,28.70,SW,225,6.0,21.0,73,0.00,,,0.00,Rainwise IP-100,2013-12-13 05:11:00,
2013-12-13 00:16:00,18.4,11.0,28.70,SW,225,9.0,19.0,74,0.00,,,0.00,Rainwise IP-100,2013-12-13 05:16:00,
2013-12-13 00:18:00,18.3,11.0,28.70,SW,225,15.0,21.0,73,0.00,,,0.00,Rainwise IP-100,2013-12-13 05:18:00,
2013-12-13 00:23:00,18.3,11.0,28.69,WSW,247,11.0,22.0,74,0.00,,,0.00,Rainwise IP-100,2013-12-13 05:23:00,
2013-12-13 00:29:00,18.2,11.0,28.69,West,270,9.0,22.0,74,0.00,,,0.00,Rainwise IP-100,2013-12-13 05:29:00,
2013-12-13 00:34:00,18.2,11.0,28.70,WSW,247,8.0,19.0,74,0.00,,,0.00,Rainwise IP-100,2013-12-13 05:34:00,
2013-12-13 00:39:00,18.1,14.0,28.69,WSW,247,6.0,20.0,75,0.00,,,0.00,Rainwise IP-100,2013-12-13 05:39:00,
2013-12-13 00:44:00,18.1,11.0,28.70,WSW,247,12.0,21.0,74,0.00,,,0.00,Rainwise IP-100,2013-12-13 05:44:00,
2013-12-13 00:49:00,18.0,14.0,28.70,SW,225,6.0,18.0,75,0.00,,,0.00,Rainwise IP-100,2013-12-13 05:49:00,
2013-12-13 00:54:00,18.1,14.0,28.70,WNW,292,9.0,23.0,75,0.00,,,0.00,Rainwise IP-100,2013-12-13 05:54:00,
2013-12-13 00:59:00,18.0,14.0,28.70,West,270,12.0,16.0,76,0.00,,,0.00,Rainwise IP-100,2013-12-13 05:59:00,
2013-12-13 01:04:00,18.1,14.0,28.70,WSW,247,4.0,16.0,76,0.00,,,0.00,Rainwise IP-100,2013-12-13 06:04:00,
2013-12-13 01:09:00,18.1,14.0,28.70,WSW,247,7.0,19.0,76,0.00,,,0.00,Rainwise IP-100,2013-12-13 06:09:00,
2013-12-13 01:14:00,18.0,14.0,28.70,WSW,247,10.0,16.0,76,0.00,,,0.00,Rainwise IP-100,2013-12-13 06:14:00,
2013-12-13 01:19:00,18.0,14.0,28.70,WSW,247,11.0,21.0,76,0.00,,,0.00,Rainwise IP-100,2013-12-13 06:19:00,
2013-12-13 01:24:00,18.1,14.0,28.70,West,270,6.0,16.0,77,0.00,,,0.00,Rainwise IP-100,2013-12-13 06:24:00,
2013-12-13 01:30:00,18.1,14.0,28.70,WSW,247,9.0,15.0,77,0.00,,,0.00,Rainwise IP-100,2013-12-13 06:30:00,
2013-12-13 01:35:00,18.1,14.0,28.70,West,270,8.0,15.0,76,0.00,,,0.00,Rainwise IP-100,2013-12-13 06:35:00,
2013-12-13 01:40:00,18.1,14.0,28.70,WSW,247,13.0,17.0,76,0.00,,,0.00,Rainwise IP-100,2013-12-13 06:40:00,
2013-12-13 01:45:00,18.1,14.0,28.70,WSW,247,11.0,14.0,77,0.00,,,0.00,Rainwise IP-100,2013-12-13 06:45:00,
2013-12-13 01:50:00,18.1,14.0,28.70,West,270,8.0,17.0,77,0.00,,,0.00,Rainwise IP-100,2013-12-13 06:50:00,
2013-12-13 01:55:00,18.2,14.0,28.69,WSW,247,12.0,24.0,76,0.00,,,0.00,Rainwise IP-100,2013-12-13 06:55:00,
2013-12-13 02:00:00,18.2,14.0,28.69,West,270,10.0,25.0,76,0.00,,,0.00,Rainwise IP-100,2013-12-13 07:00:00,
2013-12-13 02:05:00,18.3,14.0,28.70,WSW,247,20.0,21.0,76,0.00,,,0.00,Rainwise IP-100,2013-12-13 07:05:00,
2013-12-13 02:10:00,18.3,14.0,28.70,West,270,9.0,22.0,76,0.00,,,0.00,Rainwise IP-100,2013-12-13 07:10:00,
2013-12-13 02:15:00,18.3,14.0,28.69,SW,225,14.0,19.0,77,0.00,,,0.00,Rainwise IP-100,2013-12-13 07:15:00,
2013-12-13 02:20:00,18.3,14.0,28.70,WSW,247,11.0,19.0,77,0.00,,,0.00,Rainwise IP-100,2013-12-13 07:20:00,
2013-12-13 02:25:00,18.3,14.0,28.69,SSW,202,7.0,18.0,77,0.00,,,0.00,Rainwise IP-100,2013-12-13 07:25:00,
2013-12-13 02:31:00,18.2,14.0,28.69,SW,225,7.0,17.0,77,0.00,,,0.00,Rainwise IP-100,2013-12-13 07:31:00,
2013-12-13 02:36:00,18.2,14.0,28.69,West,270,7.0,17.0,78,0.00,,,0.00,Rainwise IP-100,2013-12-13 07:36:00,
2013-12-13 02:41:00,18.3,14.0,28.70,WSW,247,10.0,16.0,78,0.00,,,0.00,Rainwise IP-100,2013-12-13 07:41:00,
2013-12-13 02:46:00,18.4,14.0,28.70,WSW,247,14.0,19.0,78,0.00,,,0.00,Rainwise IP-100,2013-12-13 07:46:00,
2013-12-13 02:51:00,18.4,14.0,28.70,WSW,247,9.0,15.0,78,0.00,,,0.00,Rainwise IP-100,2013-12-13 07:51:00,
2013-12-13 02:56:00,18.4,14.0,28.70,WSW,247,7.0,19.0,78,0.00,,,0.00,Rainwise IP-100,2013-12-13 07:56:00,
2013-12-13 03:01:00,18.5,16.0,28.70,WSW,247,7.0,14.0,78,0.00,,,0.00,Rainwise IP-100,2013-12-13 08:01:00,
2013-12-13 03:06:00,18.6,16.0,28.70,WSW,247,7.0,16.0,78,0.00,,,0.00,Rainwise IP-100,2013-12-13 08:06:00,
2013-12-13 03:11:00,18.6,16.0,28.70,SW,225,10.0,18.0,78,0.00,,,0.00,Rainwise IP-100,2013-12-13 08:11:00,
2013-12-13 03:16:00,18.8,16.0,28.70,WSW,247,12.0,18.0,78,0.00,,,0.00,Rainwise IP-100,2013-12-13 08:16:00,
2013-12-13 03:21:00,18.8,16.0,28.70,WSW,247,10.0,20.0,78,0.00,,,0.00,Rainwise IP-100,2013-12-13 08:21:00,
2013-12-13 03:26:00,18.9,16.0,28.70,SSW,202,9.0,20.0,78,0.00,,,0.00,Rainwise IP-100,2013-12-13 08:26:00,
2013-12-13 03:32:00,18.9,16.0,28.69,WSW,247,9.0,21.0,78,0.00,,,0.00,Rainwise IP-100,2013-12-13 08:32:00,
2013-12-13 03:37:00,19.0,16.0,28.70,WSW,247,6.0,17.0,78,0.00,,,0.00,Rainwise IP-100,2013-12-13 08:37:00,
2013-12-13 03:42:00,19.1,16.0,28.70,West,270,7.0,17.0,78,0.00,,,0.00,Rainwise IP-100,2013-12-13 08:42:00,
2013-12-13 03:47:00,18.9,16.0,28.70,WSW,247,7.0,19.0,78,0.00,,,0.00,Rainwise IP-100,2013-12-13 08:47:00,
2013-12-13 03:52:00,19.0,16.0,28.70,WSW,247,4.0,17.0,79,0.00,,,0.00,Rainwise IP-100,2013-12-13 08:52:00,
2013-12-13 03:57:00,19.1,16.0,28.70,West,270,11.0,14.0,79,0.00,,,0.00,Rainwise IP-100,2013-12-13 08:57:00,
2013-12-13 04:02:00,19.1,16.0,28.70,WSW,247,9.0,17.0,79,0.00,,,0.00,Rainwise IP-100,2013-12-13 09:02:00,
2013-12-13 04:07:00,19.2,16.0,28.70,WSW,247,12.0,16.0,79,0.00,,,0.00,Rainwise IP-100,2013-12-13 09:07:00,
2013-12-13 04:12:00,19.2,16.0,28.70,SW,225,9.0,17.0,79,0.00,,,0.00,Rainwise IP-100,2013-12-13 09:12:00,
2013-12-13 04:17:00,19.3,16.0,28.70,WSW,247,7.0,16.0,79,0.00,,,0.00,Rainwise IP-100,2013-12-13 09:17:00,
2013-12-13 04:22:00,19.3,16.0,28.69,West,270,6.0,17.0,79,0.00,,,0.00,Rainwise IP-100,2013-12-13 09:22:00,
2013-12-13 04:27:00,19.2,16.0,28.69,SW,225,9.0,20.0,80,0.00,,,0.00,Rainwise IP-100,2013-12-13 09:27:00,
2013-12-13 04:33:00,19.2,16.0,28.70,West,270,16.0,16.0,80,0.00,,,0.00,Rainwise IP-100,2013-12-13 09:33:00,
2013-12-13 04:38:00,19.4,16.0,28.69,SSW,202,10.0,27.0,80,0.00,,,0.00,Rainwise IP-100,2013-12-13 09:38:00,
2013-12-13 04:43:00,19.4,16.0,28.70,West,270,9.0,21.0,81,0.00,,,0.00,Rainwise IP-100,2013-12-13 09:43:00,
2013-12-13 04:48:00,19.6,16.0,28.69,WSW,247,9.0,22.0,80,0.00,,,0.00,Rainwise IP-100,2013-12-13 09:48:00,
2013-12-13 04:53:00,19.7,16.0,28.70,SW,225,11.0,21.0,81,0.00,,,0.00,Rainwise IP-100,2013-12-13 09:53:00,
2013-12-13 04:58:00,19.8,16.0,28.70,WSW,247,7.0,19.0,81,0.00,,,0.00,Rainwise IP-100,2013-12-13 09:58:00,
2013-12-13 05:03:00,19.9,16.0,28.70,WSW,247,11.0,17.0,81,0.00,,,0.00,Rainwise IP-100,2013-12-13 10:03:00,
2013-12-13 05:08:00,19.9,16.0,28.70,SW,225,6.0,17.0,82,0.00,,,0.00,Rainwise IP-100,2013-12-13 10:08:00,
2013-12-13 05:13:00,20.0,16.0,28.70,SW,225,9.0,17.0,82,0.00,,,0.00,Rainwise IP-100,2013-12-13 10:13:00,
2013-12-13 05:18:00,20.2,16.0,28.70,WNW,292,7.0,16.0,82,0.00,,,0.00,Rainwise IP-100,2013-12-13 10:18:00,
2013-12-13 05:23:00,20.3,16.0,28.71,WSW,247,8.0,16.0,82,0.00,,,0.00,Rainwise IP-100,2013-12-13 10:23:00,
2013-12-13 05:28:00,20.5,16.0,28.70,West,270,10.0,24.0,82,0.00,,,0.00,Rainwise IP-100,2013-12-13 10:28:00,
2013-12-13 05:34:00,20.7,16.0,28.71,West,270,14.0,22.0,81,0.00,,,0.00,Rainwise IP-100,2013-12-13 10:34:00,
2013-12-13 05:39:00,20.7,16.0,28.71,WSW,247,9.0,17.0,82,0.00,,,0.00,Rainwise IP-100,2013-12-13 10:39:00,
2013-12-13 05:44:00,20.8,16.0,28.72,SW,225,11.0,20.0,81,0.00,,,0.00,Rainwise IP-100,2013-12-13 10:44:00,
2013-12-13 05:49:00,20.9,16.0,28.71,WSW,247,9.0,20.0,82,0.00,,,0.00,Rainwise IP-100,2013-12-13 10:49:00,
2013-12-13 05:54:00,21.0,16.0,28.72,West,270,6.0,20.0,82,0.00,,,0.00,Rainwise IP-100,2013-12-13 10:54:00,
2013-12-13 05:59:00,21.0,16.0,28.72,SW,225,7.0,16.0,83,0.00,,,0.00,Rainwise IP-100,2013-12-13 10:59:00,
2013-12-13 06:04:00,21.1,16.0,28.72,WSW,247,7.0,19.0,83,0.00,,,0.00,Rainwise IP-100,2013-12-13 11:04:00,
2013-12-13 06:09:00,21.1,16.0,28.72,West,270,4.0,16.0,83,0.00,,,0.00,Rainwise IP-100,2013-12-13 11:09:00,
2013-12-13 06:14:00,21.3,16.0,28.72,WSW,247,5.0,20.0,82,0.00,,,0.00,Rainwise IP-100,2013-12-13 11:14:00,
2013-12-13 06:19:00,21.4,16.0,28.73,WSW,247,12.0,22.0,82,0.00,,,0.00,Rainwise IP-100,2013-12-13 11:19:00,
2013-12-13 06:24:00,21.4,16.0,28.71,WSW,247,8.0,19.0,82,0.00,,,0.00,Rainwise IP-100,2013-12-13 11:24:00,
2013-12-13 06:29:00,21.5,18.0,28.71,West,270,13.0,21.0,82,0.00,,,0.00,Rainwise IP-100,2013-12-13 11:29:00,
2013-12-13 06:35:00,21.5,18.0,28.71,WSW,247,23.0,25.0,83,0.00,,,0.00,Rainwise IP-100,2013-12-13 11:35:00,
2013-12-13 06:40:00,21.6,18.0,28.71,WSW,247,12.0,21.0,83,0.00,,,0.00,Rainwise IP-100,2013-12-13 11:40:00,
2013-12-13 06:45:00,21.5,18.0,28.72,WNW,292,7.0,22.0,85,0.00,,,0.00,Rainwise IP-100,2013-12-13 11:45:00,
2013-12-13 06:50:00,21.5,18.0,28.72,WNW,292,9.0,20.0,85,0.00,,,0.00,Rainwise IP-100,2013-12-13 11:50:00,
2013-12-13 06:55:00,21.6,18.0,28.72,SW,225,6.0,19.0,85,0.00,,,0.00,Rainwise IP-100,2013-12-13 11:55:00,
2013-12-13 07:00:00,21.6,18.0,28.72,West,270,6.0,19.0,86,0.00,,,0.00,Rainwise IP-100,2013-12-13 12:00:00,
2013-12-13 07:05:00,21.7,18.0,28.72,WSW,247,7.0,16.0,85,0.00,,,0.00,Rainwise IP-100,2013-12-13 12:05:00,
2013-12-13 07:10:00,21.8,18.0,28.73,West,270,15.0,17.0,85,0.00,,,0.00,Rainwise IP-100,2013-12-13 12:10:00,
2013-12-13 07:15:00,21.9,18.0,28.73,WSW,247,12.0,20.0,84,0.00,,,0.00,Rainwise IP-100,2013-12-13 12:15:00,
2013-12-13 07:20:00,21.9,18.0,28.73,West,270,6.0,18.0,83,0.00,,,0.00,Rainwise IP-100,2013-12-13 12:20:00,
2013-12-13 07:25:00,22.0,18.0,28.72,WSW,247,11.0,18.0,83,0.00,,,0.00,Rainwise IP-100,2013-12-13 12:25:00,
2013-12-13 07:27:00,22.0,18.0,28.73,West,270,6.0,14.0,83,0.00,,,0.00,Rainwise IP-100,2013-12-13 12:27:00,
2013-12-13 07:32:00,22.0,18.0,28.73,West,270,11.0,16.0,83,0.00,,,0.00,Rainwise IP-100,2013-12-13 12:32:00,
2013-12-13 07:38:00,22.1,18.0,28.74,WSW,247,9.0,15.0,83,0.00,,,0.00,Rainwise IP-100,2013-12-13 12:38:00,
2013-12-13 07:43:00,22.1,18.0,28.73,WSW,247,7.0,18.0,83,0.00,,,0.00,Rainwise IP-100,2013-12-13 12:43:00,
2013-12-13 07:48:00,22.2,18.0,28.74,West,270,15.0,16.0,83,0.00,,,0.00,Rainwise IP-100,2013-12-13 12:48:00,
2013-12-13 07:53:00,22.2,18.0,28.74,SW,225,5.0,16.0,84,0.00,,,0.00,Rainwise IP-100,2013-12-13 12:53:00,
2013-12-13 07:58:00,22.3,18.0,28.74,WSW,247,12.0,14.0,84,0.00,,,0.00,Rainwise IP-100,2013-12-13 12:58:00,
2013-12-13 08:03:00,22.3,18.0,28.75,WSW,247,8.0,15.0,84,0.00,,,0.00,Rainwise IP-100,2013-12-13 13:03:00,
2013-12-13 08:08:00,22.4,18.0,28.75,WSW,247,6.0,14.0,84,0.00,,,0.00,Rainwise IP-100,2013-12-13 13:08:00,
2013-12-13 08:13:00,22.5,18.0,28.75,WSW,247,5.0,14.0,84,0.00,,,0.00,Rainwise IP-100,2013-12-13 13:13:00,
2013-12-13 08:18:00,22.5,18.0,28.75,WSW,247,10.0,16.0,84,0.00,,,0.00,Rainwise IP-100,2013-12-13 13:18:00,
2013-12-13 08:23:00,22.5,18.0,28.75,WSW,247,9.0,16.0,85,0.00,,,0.00,Rainwise IP-100,2013-12-13 13:23:00,
2013-12-13 08:28:00,22.5,18.0,28.76,WSW,247,6.0,15.0,86,0.00,,,0.00,Rainwise IP-100,2013-12-13 13:28:00,
2013-12-13 08:33:00,22.4,21.0,28.76,WSW,247,7.0,14.0,88,0.00,,,0.00,Rainwise IP-100,2013-12-13 13:33:00,
2013-12-13 08:39:00,22.3,21.0,28.77,West,270,9.0,15.0,89,0.00,,,0.00,Rainwise IP-100,2013-12-13 13:39:00,
2013-12-13 08:44:00,22.3,21.0,28.77,WSW,247,8.0,19.0,90,0.00,,,0.00,Rainwise IP-100,2013-12-13 13:44:00,
2013-12-13 08:49:00,22.3,21.0,28.77,West,270,11.0,16.0,91,0.00,,,0.00,Rainwise IP-100,2013-12-13 13:49:00,
2013-12-13 08:54:00,22.3,21.0,28.77,WSW,247,8.0,14.0,92,0.00,,,0.00,Rainwise IP-100,2013-12-13 13:54:00,
2013-12-13 08:59:00,22.1,21.0,28.78,SW,225,9.0,13.0,93,0.00,,,0.00,Rainwise IP-100,2013-12-13 13:59:00,
2013-12-13 09:04:00,22.0,21.0,28.78,SSW,202,7.0,15.0,93,0.00,,,0.00,Rainwise IP-100,2013-12-13 14:04:00,
2013-12-13 09:09:00,22.0,21.0,28.78,WSW,247,7.0,14.0,93,0.00,,,0.00,Rainwise IP-100,2013-12-13 14:09:00,
2013-12-13 09:14:00,21.9,21.0,28.78,WSW,247,7.0,13.0,93,0.00,,,0.00,Rainwise IP-100,2013-12-13 14:14:00,
2013-12-13 09:19:00,21.9,21.0,28.78,WSW,247,10.0,15.0,93,0.00,,,0.00,Rainwise IP-100,2013-12-13 14:19:00,
2013-12-13 09:24:00,21.9,21.0,28.78,West,270,9.0,13.0,93,0.00,,,0.00,Rainwise IP-100,2013-12-13 14:24:00,
2013-12-13 09:29:00,21.9,21.0,28.79,WSW,247,7.0,11.0,93,0.00,,,0.00,Rainwise IP-100,2013-12-13 14:29:00,
2013-12-13 09:34:00,21.9,21.0,28.79,WSW,247,11.0,12.0,93,0.00,,,0.00,Rainwise IP-100,2013-12-13 14:34:00,
2013-12-13 09:40:00,21.9,21.0,28.79,West,270,7.0,13.0,93,0.00,,,0.00,Rainwise IP-100,2013-12-13 14:40:00,
2013-12-13 09:45:00,21.9,21.0,28.79,West,270,5.0,12.0,93,0.00,,,0.00,Rainwise IP-100,2013-12-13 14:45:00,
2013-12-13 09:50:00,21.9,21.0,28.79,West,270,4.0,14.0,93,0.00,,,0.00,Rainwise IP-100,2013-12-13 14:50:00,
2013-12-13 09:55:00,21.9,21.0,28.79,West,270,7.0,13.0,93,0.00,,,0.00,Rainwise IP-100,2013-12-13 14:55:00,
2013-12-13 10:00:00,22.0,21.0,28.80,West,270,6.0,10.0,93,0.00,,,0.00,Rainwise IP-100,2013-12-13 15:00:00,
2013-12-13 10:05:00,22.1,21.0,28.80,West,270,11.0,14.0,93,0.00,,,0.00,Rainwise IP-100,2013-12-13 15:05:00,
2013-12-13 10:10:00,22.1,21.0,28.80,WNW,292,8.0,12.0,93,0.00,,,0.00,Rainwise IP-100,2013-12-13 15:10:00,
2013-12-13 10:15:00,22.1,21.0,28.80,WSW,247,5.0,13.0,93,0.00,,,0.00,Rainwise IP-100,2013-12-13 15:15:00,
2013-12-13 10:20:00,22.2,21.0,28.81,West,270,6.0,10.0,93,0.00,,,0.00,Rainwise IP-100,2013-12-13 15:20:00,
2013-12-13 10:25:00,21.9,21.0,28.81,WNW,292,7.0,12.0,93,0.00,,,0.00,Rainwise IP-100,2013-12-13 15:25:00,
2013-12-13 10:30:00,21.1,18.0,28.81,North,360,7.0,16.0,93,0.00,,,0.00,Rainwise IP-100,2013-12-13 15:30:00,
2013-12-13 10:35:00,20.7,18.0,28.82,NNE,22,7.0,14.0,93,0.00,,,0.00,Rainwise IP-100,2013-12-13 15:35:00,
2013-12-13 10:41:00,20.3,18.0,28.82,North,360,12.0,12.0,93,0.00,,,0.00,Rainwise IP-100,2013-12-13 15:41:00,
2013-12-13 10:46:00,19.8,18.0,28.83,North,360,4.0,12.0,93,0.00,,,0.00,Rainwise IP-100,2013-12-13 15:46:00,
2013-12-13 10:51:00,19.5,18.0,28.82,North,360,4.0,9.0,93,0.00,,,0.00,Rainwise IP-100,2013-12-13 15:51:00,
2013-12-13 10:56:00,19.4,18.0,28.82,NNW,337,2.0,10.0,93,0.00,,,0.00,Rainwise IP-100,2013-12-13 15:56:00,
2013-12-13 11:01:00,19.4,18.0,28.83,North,360,4.0,9.0,93,0.00,,,0.00,Rainwise IP-100,2013-12-13 16:01:00,
2013-12-13 11:06:00,18.9,18.0,28.83,North,360,6.0,12.0,93,0.00,,,0.00,Rainwise IP-100,2013-12-13 16:06:00,
2013-12-13 11:11:00,18.9,18.0,28.83,North,360,6.0,12.0,93,0.00,,,0.00,Rainwise IP-100,2013-12-13 16:11:00,
2013-12-13 11:16:00,18.9,18.0,28.83,NNE,22,7.0,12.0,93,0.00,,,0.00,Rainwise IP-100,2013-12-13 16:16:00,
2013-12-13 11:21:00,19.1,18.0,28.83,NW,315,3.0,11.0,93,0.00,,,0.00,Rainwise IP-100,2013-12-13 16:21:00,
2013-12-13 11:26:00,19.0,18.0,28.83,North,360,8.0,8.0,93,0.00,,,0.00,Rainwise IP-100,2013-12-13 16:26:00,
2013-12-13 11:31:00,19.1,18.0,28.83,NNE,22,4.0,9.0,93,0.00,,,0.00,Rainwise IP-100,2013-12-13 16:31:00,
2013-12-13 11:36:00,19.3,18.0,28.84,North,360,1.0,11.0,93,0.00,,,0.00,Rainwise IP-100,2013-12-13 16:36:00,
2013-12-13 11:42:00,19.4,18.0,28.84,North,360,7.0,8.0,93,0.00,,,0.00,Rainwise IP-100,2013-12-13 16:42:00,
2013-12-13 11:47:00,19.2,18.0,28.84,NNE,22,7.0,12.0,93,0.00,,,0.00,Rainwise IP-100,2013-12-13 16:47:00,
2013-12-13 11:52:00,18.7,18.0,28.84,North,360,9.0,12.0,93,0.00,,,0.00,Rainwise IP-100,2013-12-13 16:52:00,
2013-12-13 11:57:00,18.3,16.0,28.84,North,360,4.0,12.0,93,0.00,,,0.00,Rainwise IP-100,2013-12-13 16:57:00,
2013-12-13 12:02:00,18.0,16.0,28.84,NNE,22,9.0,14.0,93,0.00,,,0.00,Rainwise IP-100,2013-12-13 17:02:00,
2013-12-13 12:07:00,17.8,16.0,28.84,North,360,9.0,13.0,93,0.00,,,0.00,Rainwise IP-100,2013-12-13 17:07:00,
2013-12-13 12:12:00,17.9,16.0,28.84,NNE,22,12.0,12.0,93,0.00,,,0.00,Rainwise IP-100,2013-12-13 17:12:00,
2013-12-13 12:17:00,18.1,16.0,28.84,North,360,2.0,12.0,93,0.00,,,0.00,Rainwise IP-100,2013-12-13 17:17:00,
2013-12-13 12:22:00,18.4,16.0,28.84,North,360,7.0,12.0,92,0.00,,,0.00,Rainwise IP-100,2013-12-13 17:22:00,
2013-12-13 12:27:00,18.5,18.0,28.84,NNW,337,3.0,10.0,92,0.00,,,0.00,Rainwise IP-100,2013-12-13 17:27:00,
2013-12-13 12:32:00,18.3,16.0,28.85,NNE,22,9.0,9.0,90,0.00,,,0.00,Rainwise IP-100,2013-12-13 17:32:00,
2013-12-13 12:37:00,18.5,18.0,28.84,NNW,337,6.0,12.0,89,0.00,,,0.00,Rainwise IP-100,2013-12-13 17:37:00,
2013-12-13 12:43:00,18.0,16.0,28.85,North,360,7.0,14.0,88,0.00,,,0.00,Rainwise IP-100,2013-12-13 17:43:00,
2013-12-13 12:48:00,17.9,16.0,28.85,North,360,4.0,12.0,89,0.00,,,0.00,Rainwise IP-100,2013-12-13 17:48:00,
2013-12-13 12:53:00,18.2,16.0,28.85,NW,315,5.0,7.0,88,0.00,,,0.00,Rainwise IP-100,2013-12-13 17:53:00,
2013-12-13 12:58:00,18.0,16.0,28.85,NNE,22,7.0,9.0,87,0.00,,,0.00,Rainwise IP-100,2013-12-13 17:58:00,
2013-12-13 13:03:00,17.9,14.0,28.85,North,360,4.0,10.0,84,0.00,,,0.00,Rainwise IP-100,2013-12-13 18:03:00,
2013-12-13 13:08:00,18.4,16.0,28.85,NNE,22,4.0,9.0,87,0.00,,,0.00,Rainwise IP-100,2013-12-13 18:08:00,
2013-12-13 13:13:00,18.0,16.0,28.85,North,360,4.0,11.0,85,0.00,,,0.00,Rainwise IP-100,2013-12-13 18:13:00,
2013-12-13 13:18:00,18.3,16.0,28.86,NNE,22,4.0,7.0,87,0.00,,,0.00,Rainwise IP-100,2013-12-13 18:18:00,
2013-12-13 13:23:00,17.7,16.0,28.86,NE,45,7.0,12.0,85,0.00,,,0.00,Rainwise IP-100,2013-12-13 18:23:00,
2013-12-13 13:28:00,17.7,16.0,28.86,NNE,22,4.0,11.0,86,0.00,,,0.00,Rainwise IP-100,2013-12-13 18:28:00,
2013-12-13 13:33:00,17.3,16.0,28.86,North,360,7.0,9.0,87,0.00,,,0.00,Rainwise IP-100,2013-12-13 18:33:00,
2013-12-13 13:38:00,17.5,16.0,28.86,North,360,4.0,7.0,89,0.00,,,0.00,Rainwise IP-100,2013-12-13 18:38:00,
2013-12-13 13:44:00,17.4,16.0,28.86,NNE,22,7.0,7.0,88,0.00,,,0.00,Rainwise IP-100,2013-12-13 18:44:00,
2013-12-13 13:49:00,17.4,16.0,28.86,NNW,337,5.0,7.0,89,0.00,,,0.00,Rainwise IP-100,2013-12-13 18:49:00,
2013-12-13 13:54:00,16.9,16.0,28.86,NNW,337,7.0,9.0,89,0.00,,,0.00,Rainwise IP-100,2013-12-13 18:54:00,
2013-12-13 13:59:00,16.7,16.0,28.86,North,360,2.0,9.0,91,0.00,,,0.00,Rainwise IP-100,2013-12-13 18:59:00,
2013-12-13 14:04:00,16.6,16.0,28.86,North,360,2.0,7.0,92,0.00,,,0.00,Rainwise IP-100,2013-12-13 19:04:00,
2013-12-13 14:09:00,16.7,16.0,28.86,North,360,4.0,6.0,92,0.00,,,0.00,Rainwise IP-100,2013-12-13 19:09:00,
2013-12-13 14:14:00,16.7,16.0,28.87,NW,315,1.0,6.0,92,0.00,,,0.00,Rainwise IP-100,2013-12-13 19:14:00,
2013-12-13 14:19:00,16.7,16.0,28.86,North,360,2.0,5.0,93,0.00,,,0.00,Rainwise IP-100,2013-12-13 19:19:00,
2013-12-13 14:24:00,16.8,16.0,28.87,North,360,2.0,4.0,93,0.00,,,0.00,Rainwise IP-100,2013-12-13 19:24:00,
2013-12-13 14:29:00,16.8,16.0,28.87,North,360,2.0,5.0,93,0.00,,,0.00,Rainwise IP-100,2013-12-13 19:29:00,
2013-12-13 14:34:00,16.8,16.0,28.87,North,360,2.0,5.0,93,0.00,,,0.00,Rainwise IP-100,2013-12-13 19:34:00,
2013-12-13 14:39:00,16.5,16.0,28.87,North,360,3.0,8.0,90,0.00,,,0.00,Rainwise IP-100,2013-12-13 19:39:00,
2013-12-13 14:45:00,16.7,16.0,28.87,North,360,4.0,6.0,91,0.00,,,0.00,Rainwise IP-100,2013-12-13 19:45:00,
2013-12-13 14:50:00,16.7,16.0,28.87,North,360,2.0,6.0,91,0.00,,,0.00,Rainwise IP-100,2013-12-13 19:50:00,
2013-12-13 14:55:00,16.8,16.0,28.88,NE,45,1.0,5.0,91,0.00,,,0.00,Rainwise IP-100,2013-12-13 19:55:00,
2013-12-13 15:00:00,16.7,16.0,28.88,NNE,22,3.0,6.0,92,0.00,,,0.00,Rainwise IP-100,2013-12-13 20:00:00,
2013-12-13 15:05:00,16.7,16.0,28.88,North,360,2.0,6.0,91,0.00,,,0.00,Rainwise IP-100,2013-12-13 20:05:00,
2013-12-13 15:10:00,16.7,16.0,28.88,NNE,22,1.0,5.0,92,0.00,,,0.00,Rainwise IP-100,2013-12-13 20:10:00,
2013-12-13 15:15:00,16.6,16.0,28.88,NE,45,4.0,6.0,91,0.00,,,0.00,Rainwise IP-100,2013-12-13 20:15:00,
2013-12-13 15:20:00,16.5,16.0,28.89,NNW,337,3.0,5.0,90,0.00,,,0.00,Rainwise IP-100,2013-12-13 20:20:00,
2013-12-13 15:25:00,16.5,16.0,28.89,North,360,4.0,6.0,91,0.00,,,0.00,Rainwise IP-100,2013-12-13 20:25:00,
2013-12-13 15:30:00,16.4,14.0,28.89,North,360,2.0,5.0,91,0.00,,,0.00,Rainwise IP-100,2013-12-13 20:30:00,
2013-12-13 15:35:00,16.5,16.0,28.89,North,360,2.0,5.0,91,0.00,,,0.00,Rainwise IP-100,2013-12-13 20:35:00,
2013-12-13 15:40:00,16.5,16.0,28.89,NW,315,1.0,3.0,91,0.00,,,0.00,Rainwise IP-100,2013-12-13 20:40:00,
2013-12-13 15:46:00,16.5,16.0,28.90,North,360,2.0,2.0,92,0.00,,,0.00,Rainwise IP-100,2013-12-13 20:46:00,
2013-12-13 15:51:00,16.4,14.0,28.90,NNW,337,2.0,4.0,89,0.00,,,0.00,Rainwise IP-100,2013-12-13 20:51:00,
2013-12-13 15:56:00,16.3,14.0,28.90,North,360,3.0,5.0,89,0.00,,,0.00,Rainwise IP-100,2013-12-13 20:56:00,
2013-12-13 16:01:00,16.2,14.0,28.91,NNE,22,2.0,6.0,87,0.00,,,0.00,Rainwise IP-100,2013-12-13 21:01:00,
2013-12-13 16:06:00,16.1,14.0,28.91,NW,315,2.0,4.0,86,0.00,,,0.00,Rainwise IP-100,2013-12-13 21:06:00,
2013-12-13 16:11:00,15.9,14.0,28.92,North,360,2.0,6.0,87,0.00,,,0.00,Rainwise IP-100,2013-12-13 21:11:00,
2013-12-13 16:16:00,15.9,14.0,28.92,NW,315,2.0,5.0,87,0.00,,,0.00,Rainwise IP-100,2013-12-13 21:16:00,
2013-12-13 16:21:00,15.8,14.0,28.92,North,360,3.0,5.0,87,0.00,,,0.00,Rainwise IP-100,2013-12-13 21:21:00,
2013-12-13 16:26:00,15.8,14.0,28.92,North,360,3.0,5.0,87,0.00,,,0.00,Rainwise IP-100,2013-12-13 21:26:00,
2013-12-13 16:31:00,15.7,14.0,28.92,NNW,337,0.0,3.0,88,0.00,,,0.00,Rainwise IP-100,2013-12-13 21:31:00,
2013-12-13 16:36:00,15.7,14.0,28.93,North,360,1.0,2.0,90,0.00,,,0.00,Rainwise IP-100,2013-12-13 21:36:00,
2013-12-13 16:41:00,15.6,14.0,28.94,North,360,0.0,4.0,91,0.00,,,0.00,Rainwise IP-100,2013-12-13 21:41:00,
2013-12-13 16:47:00,15.6,14.0,28.94,NW,315,0.0,3.0,92,0.00,,,0.00,Rainwise IP-100,2013-12-13 21:47:00,
2013-12-13 16:52:00,15.5,14.0,28.93,North,360,2.0,2.0,92,0.00,,,0.00,Rainwise IP-100,2013-12-13 21:52:00,
2013-12-13 16:57:00,15.4,14.0,28.93,North,360,3.0,4.0,93,0.00,,,0.00,Rainwise IP-100,2013-12-13 21:57:00,
2013-12-13 17:02:00,15.4,14.0,28.94,North,360,1.0,4.0,93,0.00,,,0.00,Rainwise IP-100,2013-12-13 22:02:00,
2013-12-13 17:07:00,15.3,14.0,28.94,North,360,3.0,3.0,93,0.00,,,0.00,Rainwise IP-100,2013-12-13 22:07:00,
2013-12-13 17:12:00,15.2,14.0,28.94,NNW,337,2.0,3.0,93,0.00,,,0.00,Rainwise IP-100,2013-12-13 22:12:00,
2013-12-13 17:17:00,15.1,14.0,28.94,North,360,0.0,2.0,93,0.00,,,0.00,Rainwise IP-100,2013-12-13 22:17:00,
2013-12-13 17:22:00,14.9,14.0,28.94,North,360,0.0,0.0,93,0.00,,,0.00,Rainwise IP-100,2013-12-13 22:22:00,
2013-12-13 17:27:00,14.9,14.0,28.94,North,360,0.0,0.0,93,0.00,,,0.00,Rainwise IP-100,2013-12-13 22:27:00,
2013-12-13 17:32:00,14.8,14.0,28.94,North,360,0.0,0.0,93,0.00,,,0.00,Rainwise IP-100,2013-12-13 22:32:00,
2013-12-13 17:37:00,14.7,14.0,28.95,North,360,0.0,2.0,93,0.00,,,0.00,Rainwise IP-100,2013-12-13 22:37:00,
2013-12-13 17:42:00,14.6,14.0,28.95,North,360,0.0,0.0,93,0.00,,,0.00,Rainwise IP-100,2013-12-13 22:42:00,
2013-12-13 17:48:00,14.6,14.0,28.95,North,360,0.0,0.0,93,0.00,,,0.00,Rainwise IP-100,2013-12-13 22:48:00,
2013-12-13 17:53:00,14.5,14.0,28.96,North,360,0.0,0.0,93,0.00,,,0.00,Rainwise IP-100,2013-12-13 22:53:00,
2013-12-13 17:58:00,14.5,14.0,28.95,North,360,0.0,0.0,93,0.00,,,0.00,Rainwise IP-100,2013-12-13 22:58:00,
2013-12-13 18:03:00,14.3,11.0,28.96,North,360,0.0,0.0,93,0.00,,,0.00,Rainwise IP-100,2013-12-13 23:03:00,
2013-12-13 18:08:00,14.3,11.0,28.96,North,360,0.0,0.0,93,0.00,,,0.00,Rainwise IP-100,2013-12-13 23:08:00,
2013-12-13 18:13:00,14.3,11.0,28.96,North,360,0.0,0.0,93,0.00,,,0.00,Rainwise IP-100,2013-12-13 23:13:00,
2013-12-13 18:18:00,14.3,11.0,28.96,North,360,0.0,0.0,93,0.00,,,0.00,Rainwise IP-100,2013-12-13 23:18:00,
2013-12-13 18:23:00,14.3,11.0,28.96,North,360,0.0,0.0,93,0.00,,,0.00,Rainwise IP-100,2013-12-13 23:23:00,
2013-12-13 18:28:00,14.3,11.0,28.96,North,360,0.0,0.0,93,0.00,,,0.00,Rainwise IP-100,2013-12-13 23:28:00,
2013-12-13 18:33:00,14.2,11.0,28.96,North,360,0.0,0.0,93,0.00,,,0.00,Rainwise IP-100,2013-12-13 23:33:00,
2013-12-13 18:38:00,14.2,11.0,28.96,North,360,0.0,0.0,93,0.00,,,0.00,Rainwise IP-100,2013-12-13 23:38:00,
2013-12-13 18:43:00,14.1,11.0,28.96,SSW,202,2.0,2.0,93,0.00,,,0.00,Rainwise IP-100,2013-12-13 23:43:00,
2013-12-13 18:49:00,13.9,11.0,28.96,SSW,202,0.0,2.0,93,0.00,,,0.00,Rainwise IP-100,2013-12-13 23:49:00,
2013-12-13 18:54:00,13.8,11.0,28.96,SSW,202,0.0,0.0,93,0.00,,,0.00,Rainwise IP-100,2013-12-13 23:54:00,
2013-12-13 18:59:00,13.7,11.0,28.96,SSW,202,0.0,0.0,93,0.00,,,0.00,Rainwise IP-100,2013-12-13 23:59:00,
2013-12-13 19:04:00,13.6,11.0,28.96,SSW,202,0.0,0.0,93,0.00,,,0.00,Rainwise IP-100,2013-12-14 00:04:00,
2013-12-13 19:09:00,13.7,11.0,28.96,SSW,202,0.0,0.0,93,0.00,,,0.00,Rainwise IP-100,2013-12-14 00:09:00,
2013-12-13 19:14:00,13.8,11.0,28.96,SSW,202,0.0,0.0,93,0.00,,,0.00,Rainwise IP-100,2013-12-14 00:14:00,
2013-12-13 19:19:00,13.9,11.0,28.97,SSW,202,1.0,2.0,93,0.00,,,0.00,Rainwise IP-100,2013-12-14 00:19:00,
2013-12-13 19:24:00,13.9,11.0,28.97,SSW,202,1.0,2.0,93,0.00,,,0.00,Rainwise IP-100,2013-12-14 00:24:00,
2013-12-13 19:29:00,13.9,11.0,28.98,SSW,202,1.0,2.0,93,0.00,,,0.00,Rainwise IP-100,2013-12-14 00:29:00,
2013-12-13 19:34:00,13.9,11.0,28.98,SSW,202,1.0,2.0,93,0.00,,,0.00,Rainwise IP-100,2013-12-14 00:34:00,
2013-12-13 19:39:00,13.9,11.0,28.98,SSW,202,2.0,2.0,93,0.00,,,0.00,Rainwise IP-100,2013-12-14 00:39:00,
2013-12-13 19:44:00,13.9,11.0,28.98,SSW,202,1.0,2.0,93,0.00,,,0.00,Rainwise IP-100,2013-12-14 00:44:00,
2013-12-13 19:50:00,13.9,11.0,28.98,SSW,202,0.0,1.0,93,0.00,,,0.00,Rainwise IP-100,2013-12-14 00:50:00,
2013-12-13 19:55:00,13.8,11.0,28.98,SSW,202,0.0,1.0,93,0.00,,,0.00,Rainwise IP-100,2013-12-14 00:55:00,
2013-12-13 20:00:00,13.8,11.0,28.98,SSW,202,0.0,0.0,93,0.00,,,0.00,Rainwise IP-100,2013-12-14 01:00:00,
2013-12-13 20:05:00,13.8,11.0,28.98,SSW,202,0.0,0.0,93,0.00,,,0.00,Rainwise IP-100,2013-12-14 01:05:00,
2013-12-13 20:10:00,13.8,11.0,28.98,SSW,202,0.0,0.0,93,0.00,,,0.00,Rainwise IP-100,2013-12-14 01:10:00,
2013-12-13 20:15:00,13.9,11.0,28.99,SSW,202,0.0,0.0,93,0.00,,,0.00,Rainwise IP-100,2013-12-14 01:15:00,
2013-12-13 20:20:00,14.1,11.0,28.98,SSW,202,0.0,1.0,93,0.00,,,0.00,Rainwise IP-100,2013-12-14 01:20:00,
2013-12-13 20:24:00,14.2,11.0,28.99,SSW,202,0.0,1.0,93,0.00,,,0.00,Rainwise IP-100,2013-12-14 01:24:00,
2013-12-13 20:29:00,14.3,11.0,28.99,SSW,202,0.0,0.0,93,0.00,,,0.00,Rainwise IP-100,2013-12-14 01:29:00,
2013-12-13 20:34:00,14.6,14.0,28.99,NNE,22,2.0,6.0,87,0.00,,,0.00,Rainwise IP-100,2013-12-14 01:34:00,
2013-12-13 20:39:00,14.8,14.0,28.99,NW,315,3.0,7.0,84,0.00,,,0.00,Rainwise IP-100,2013-12-14 01:39:00,
2013-12-13 20:44:00,14.8,11.0,29.00,North,360,2.0,5.0,82,0.00,,,0.00,Rainwise IP-100,2013-12-14 01:44:00,
2013-12-13 20:50:00,14.7,11.0,29.00,NNW,337,3.0,7.0,81,0.00,,,0.00,Rainwise IP-100,2013-12-14 01:50:00,
2013-12-13 20:55:00,14.7,11.0,29.00,North,360,2.0,9.0,80,0.00,,,0.00,Rainwise IP-100,2013-12-14 01:55:00,
2013-12-13 21:00:00,14.6,11.0,29.00,North,360,3.0,4.0,81,0.00,,,0.00,Rainwise IP-100,2013-12-14 02:00:00,
2013-12-13 21:05:00,14.5,11.0,29.00,North,360,4.0,7.0,81,0.00,,,0.00,Rainwise IP-100,2013-12-14 02:05:00,
2013-12-13 21:10:00,14.5,11.0,29.00,NNE,22,4.0,7.0,78,0.00,,,0.00,Rainwise IP-100,2013-12-14 02:10:00,
2013-12-13 21:15:00,14.4,8.0,29.00,NE,45,2.0,8.0,78,0.00,,,0.00,Rainwise IP-100,2013-12-14 02:15:00,
2013-12-13 21:20:00,14.3,8.0,29.01,NNE,22,4.0,6.0,77,0.00,,,0.00,Rainwise IP-100,2013-12-14 02:20:00,
2013-12-13 21:25:00,14.3,8.0,29.01,North,360,2.0,6.0,76,0.00,,,0.00,Rainwise IP-100,2013-12-14 02:25:00,
2013-12-13 21:30:00,14.1,8.0,29.01,North,360,7.0,7.0,76,0.00,,,0.00,Rainwise IP-100,2013-12-14 02:30:00,
2013-12-13 21:35:00,13.9,8.0,29.01,NNE,22,5.0,8.0,76,0.00,,,0.00,Rainwise IP-100,2013-12-14 02:35:00,
2013-12-13 21:40:00,13.9,8.0,29.02,NNE,22,2.0,7.0,76,0.00,,,0.00,Rainwise IP-100,2013-12-14 02:40:00,
2013-12-13 21:45:00,13.7,8.0,29.02,North,360,4.0,5.0,76,0.00,,,0.00,Rainwise IP-100,2013-12-14 02:45:00,
2013-12-13 21:51:00,13.7,8.0,29.02,North,360,2.0,6.0,75,0.00,,,0.00,Rainwise IP-100,2013-12-14 02:51:00,
2013-12-13 21:56:00,13.6,8.0,29.02,North,360,2.0,6.0,76,0.00,,,0.00,Rainwise IP-100,2013-12-14 02:56:00,
2013-12-13 22:01:00,13.5,8.0,29.02,NE,45,3.0,5.0,75,0.00,,,0.00,Rainwise IP-100,2013-12-14 03:01:00,
2013-12-13 22:06:00,13.5,8.0,29.02,NNE,22,2.0,4.0,75,0.00,,,0.00,Rainwise IP-100,2013-12-14 03:06:00,
2013-12-13 22:11:00,13.5,8.0,29.02,NNE,22,2.0,4.0,75,0.00,,,0.00,Rainwise IP-100,2013-12-14 03:11:00,
2013-12-13 22:16:00,13.3,8.0,29.02,North,360,4.0,5.0,75,0.00,,,0.00,Rainwise IP-100,2013-12-14 03:16:00,
2013-12-13 22:21:00,13.1,8.0,29.01,North,360,2.0,4.0,75,0.00,,,0.00,Rainwise IP-100,2013-12-14 03:21:00,
2013-12-13 22:26:00,12.9,8.0,29.02,North,360,1.0,2.0,76,0.00,,,0.00,Rainwise IP-100,2013-12-14 03:26:00,
2013-12-13 22:31:00,12.9,8.0,29.02,North,360,0.0,2.0,76,0.00,,,0.00,Rainwise IP-100,2013-12-14 03:31:00,
2013-12-13 22:36:00,12.9,8.0,29.02,NNE,22,2.0,2.0,75,0.00,,,0.00,Rainwise IP-100,2013-12-14 03:36:00,
2013-12-13 22:41:00,12.9,8.0,29.02,NNE,22,1.0,2.0,74,0.00,,,0.00,Rainwise IP-100,2013-12-14 03:41:00,
2013-12-13 22:46:00,12.7,8.0,29.01,NNE,22,1.0,2.0,75,0.00,,,0.00,Rainwise IP-100,2013-12-14 03:46:00,
2013-12-13 22:52:00,12.5,8.0,29.01,NNE,22,1.0,4.0,76,0.00,,,0.00,Rainwise IP-100,2013-12-14 03:52:00,
2013-12-13 22:57:00,12.5,8.0,29.01,NNE,22,0.0,2.0,76,0.00,,,0.00,Rainwise IP-100,2013-12-14 03:57:00,
2013-12-13 23:02:00,12.4,8.0,29.02,NNE,22,0.0,0.0,76,0.00,,,0.00,Rainwise IP-100,2013-12-14 04:02:00,
2013-12-13 23:07:00,12.3,8.0,29.02,NNE,22,0.0,0.0,76,0.00,,,0.00,Rainwise IP-100,2013-12-14 04:07:00,
2013-12-13 23:12:00,11.9,8.0,29.02,NNE,22,0.0,0.0,78,0.00,,,0.00,Rainwise IP-100,2013-12-14 04:12:00,
2013-12-13 23:17:00,11.8,8.0,29.02,NNE,22,0.0,0.0,79,0.00,,,0.00,Rainwise IP-100,2013-12-14 04:17:00,
2013-12-13 23:22:00,11.7,8.0,29.02,NNE,22,0.0,0.0,81,0.00,,,0.00,Rainwise IP-100,2013-12-14 04:22:00,
2013-12-13 23:27:00,11.4,8.0,29.01,NNE,22,0.0,0.0,80,0.00,,,0.00,Rainwise IP-100,2013-12-14 04:27:00,
2013-12-13 23:32:00,11.2,8.0,29.01,NNE,22,0.0,0.0,81,0.00,,,0.00,Rainwise IP-100,2013-12-14 04:32:00,
2013-12-13 23:37:00,11.1,8.0,29.01,NNE,22,0.0,0.0,81,0.00,,,0.00,Rainwise IP-100,2013-12-14 04:37:00,
2013-12-13 23:42:00,10.9,8.0,29.01,NNE,22,0.0,0.0,79,0.00,,,0.00,Rainwise IP-100,2013-12-14 04:42:00,
2013-12-13 23:47:00,10.9,4.0,29.01,NNE,22,0.0,0.0,77,0.00,,,0.00,Rainwise IP-100,2013-12-14 04:47:00,
2013-12-13 23:53:00,10.8,4.0,29.01,NNE,22,0.0,0.0,77,0.00,,,0.00,Rainwise IP-100,2013-12-14 04:53:00,
2013-12-13 23:58:00,10.4,8.0,29.02,NNE,22,0.0,0.0,80,0.00,,,0.00,Rainwise IP-100,2013-12-14 04:58:00,